User: anonymous   Login
Location: Nebula Knoll Observatory
(43.6666°N, 71.0000°W)
Time: 04:50:13
(UTC-04:00)
Language:

SeaSat 1 - Orbit

View from above orbital plane
View from above orbital plane
View from above satellite
View from above satellite

Ground track
Ground track

The orbit data is extracted from the following two-line orbital elements,

1 10967U 78064A   16268.03505546 -.00000002  00000-0  39876-4 0  9999
2 10967 108.0082 103.3474 0002529 290.9319  69.1554 14.43581861  8196
Epoch (UTC): 24 September 2016 00:50:28
Eccentricity: 0.0002529
inclination: 108.0082°
perigee height: 745 km
apogee height: 748 km
right ascension of ascending node: 103.3474°
argument of perigee: 290.9319°
revolutions per day: 14.43581861
mean anomaly at epoch: 69.1554°
orbit number at epoch: 819

The dashed part of the orbit path shows where the satellite is in the earth's shadow,  

DLR